Time,TemperatureF,DewpointF,PressureIn,WindDirection,WindDirectionDegrees,WindSpeedMPH,WindSpeedGustMPH,Humidity,HourlyPrecipIn,Conditions,Clouds,dailyrainin,SoftwareType,DateUTC
2013-04-09 00:00:00,55.3,46.1,30.00,NE,46,0.0,0.0,71,0.00,,---,0.00,VWS V14.01,2013-04-09 04:00:00,
2013-04-09 00:05:00,55.4,46.5,30.00,NE,46,0.0,0.0,72,0.00,,---,0.00,VWS V14.01,2013-04-09 04:05:00,
2013-04-09 00:10:00,55.2,46.3,30.00,NE,46,0.0,0.0,72,0.00,,---,0.00,VWS V14.01,2013-04-09 04:10:00,
2013-04-09 00:15:00,55.1,45.9,30.00,NE,46,0.0,0.0,71,0.00,,---,0.00,VWS V14.01,2013-04-09 04:15:00,
2013-04-09 00:20:00,55.1,46.2,30.00,NE,46,0.0,0.0,72,0.00,,---,0.00,VWS V14.01,2013-04-09 04:20:00,
2013-04-09 00:25:00,55.1,45.9,30.00,NE,47,0.0,0.0,71,0.00,,---,0.00,VWS V14.01,2013-04-09 04:25:00,
2013-04-09 00:30:00,55.0,46.2,29.99,NE,46,0.0,0.0,72,0.00,,---,0.00,VWS V14.01,2013-04-09 04:30:00,
2013-04-09 00:35:00,55.0,46.2,29.99,NE,46,0.0,0.0,72,0.00,,---,0.00,VWS V14.01,2013-04-09 04:35:00,
2013-04-09 00:40:00,55.0,46.2,29.99,NE,46,0.0,0.0,72,0.00,,---,0.00,VWS V14.01,2013-04-09 04:40:00,
2013-04-09 00:45:00,54.9,46.8,29.99,NE,49,0.0,0.0,74,0.00,,---,0.00,VWS V14.01,2013-04-09 04:45:00,
2013-04-09 00:50:00,54.8,46.7,29.99,NE,46,0.0,0.0,74,0.00,,---,0.00,VWS V14.01,2013-04-09 04:50:00,
2013-04-09 00:55:00,54.7,46.6,29.99,NE,48,0.0,0.0,74,0.00,,---,0.00,VWS V14.01,2013-04-09 04:55:00,
2013-04-09 01:00:00,54.6,46.5,29.98,NE,46,0.0,0.0,74,0.00,,---,0.00,VWS V14.01,2013-04-09 05:00:00,
2013-04-09 01:05:00,54.6,46.5,29.98,NNE,33,2.0,2.0,74,0.00,,---,0.00,VWS V14.01,2013-04-09 05:05:00,
2013-04-09 01:10:00,54.7,46.2,29.98,NE,34,1.0,2.0,73,0.00,,---,0.00,VWS V14.01,2013-04-09 05:10:00,
2013-04-09 01:15:00,54.7,46.6,29.98,NE,34,0.0,2.0,74,0.00,,---,0.00,VWS V14.01,2013-04-09 05:15:00,
2013-04-09 01:20:00,54.7,46.6,29.98,NE,34,0.0,2.0,74,0.00,,---,0.00,VWS V14.01,2013-04-09 05:20:00,
2013-04-09 01:25:00,54.6,46.1,29.97,NE,34,0.0,2.0,73,0.00,,---,0.00,VWS V14.01,2013-04-09 05:25:00,
2013-04-09 01:30:00,54.7,46.9,29.97,NE,34,0.0,2.0,75,0.00,,---,0.00,VWS V14.01,2013-04-09 05:30:00,
2013-04-09 01:35:00,54.6,46.8,29.97,NE,34,0.0,1.0,75,0.00,,---,0.00,VWS V14.01,2013-04-09 05:35:00,
2013-04-09 01:40:00,54.5,46.8,29.97,NE,34,0.0,1.0,75,0.00,,---,0.00,VWS V14.01,2013-04-09 05:40:00,
2013-04-09 01:45:00,54.4,46.7,29.97,NE,34,1.0,2.0,75,0.00,,---,0.00,VWS V14.01,2013-04-09 05:45:00,
2013-04-09 01:50:00,54.5,46.8,29.98,NE,34,0.0,2.0,75,0.00,,---,0.00,VWS V14.01,2013-04-09 05:50:00,
2013-04-09 01:55:00,54.5,46.8,29.97,NE,41,1.0,2.0,75,0.00,,---,0.00,VWS V14.01,2013-04-09 05:55:00,
2013-04-09 02:00:00,54.7,46.2,29.97,NE,45,2.0,3.0,73,0.00,,---,0.00,VWS V14.01,2013-04-09 06:00:00,
2013-04-09 02:05:00,54.8,46.0,29.97,NE,46,1.0,1.0,72,0.00,,---,0.00,VWS V14.01,2013-04-09 06:05:00,
2013-04-09 02:10:00,55.0,46.5,29.96,NE,43,2.0,2.0,73,0.00,,---,0.00,VWS V14.01,2013-04-09 06:10:00,
2013-04-09 02:15:00,55.1,46.6,29.96,NE,43,2.0,2.0,73,0.00,,---,0.00,VWS V14.01,2013-04-09 06:15:00,
2013-04-09 02:20:00,55.0,46.5,29.96,NE,38,1.0,2.0,73,0.00,,---,0.00,VWS V14.01,2013-04-09 06:20:00,
2013-04-09 02:25:00,54.8,46.7,29.96,NE,38,0.0,2.0,74,0.00,,---,0.00,VWS V14.01,2013-04-09 06:25:00,
2013-04-09 02:30:00,54.7,46.6,29.95,NE,39,1.0,2.0,74,0.00,,---,0.00,VWS V14.01,2013-04-09 06:30:00,
2013-04-09 02:35:00,54.6,46.1,29.96,NNE,28,1.0,2.0,73,0.00,,---,0.00,VWS V14.01,2013-04-09 06:35:00,
2013-04-09 02:40:00,54.6,46.5,29.96,NE,36,1.0,4.0,74,0.00,,---,0.00,VWS V14.01,2013-04-09 06:40:00,
2013-04-09 02:45:00,54.5,46.4,29.96,NE,35,0.0,4.0,74,0.00,,---,0.00,VWS V14.01,2013-04-09 06:45:00,
2013-04-09 02:50:00,54.6,46.1,29.95,ENE,68,1.0,4.0,73,0.00,,---,0.00,VWS V14.01,2013-04-09 06:50:00,
2013-04-09 02:55:00,54.6,46.1,29.95,ENE,68,0.0,4.0,73,0.00,,---,0.00,VWS V14.01,2013-04-09 06:55:00,
2013-04-09 03:00:00,54.6,46.1,29.94,ENE,68,0.0,4.0,73,0.00,,---,0.00,VWS V14.01,2013-04-09 07:00:00,
2013-04-09 03:05:00,54.4,46.3,29.94,ENE,68,0.0,0.0,74,0.00,,---,0.00,VWS V14.01,2013-04-09 07:05:00,
2013-04-09 03:10:00,54.2,46.8,29.95,ENE,68,0.0,0.0,76,0.00,,---,0.00,VWS V14.01,2013-04-09 07:10:00,
2013-04-09 03:15:00,54.0,47.0,29.95,ENE,68,0.0,0.0,77,0.00,,---,0.00,VWS V14.01,2013-04-09 07:15:00,
2013-04-09 03:20:00,53.8,47.1,29.94,SE,145,0.0,0.0,78,0.00,,---,0.00,VWS V14.01,2013-04-09 07:20:00,
2013-04-09 03:25:00,53.6,47.3,29.94,SE,145,0.0,0.0,79,0.00,,---,0.00,VWS V14.01,2013-04-09 07:25:00,
2013-04-09 03:30:00,53.4,47.7,29.94,SE,145,0.0,0.0,81,0.00,,---,0.00,VWS V14.01,2013-04-09 07:30:00,
2013-04-09 03:35:00,53.2,47.5,29.94,SE,145,0.0,0.0,81,0.00,,---,0.00,VWS V14.01,2013-04-09 07:35:00,
2013-04-09 03:40:00,52.9,47.2,29.94,SE,145,0.0,0.0,81,0.00,,---,0.00,VWS V14.01,2013-04-09 07:40:00,
2013-04-09 03:45:00,52.8,47.1,29.94,SE,145,0.0,0.0,81,0.00,,---,0.00,VWS V14.01,2013-04-09 07:45:00,
2013-04-09 03:50:00,52.8,47.5,29.94,SE,145,0.0,0.0,82,0.00,,---,0.00,VWS V14.01,2013-04-09 07:50:00,
2013-04-09 03:55:00,52.6,47.3,29.94,SE,145,0.0,0.0,82,0.00,,---,0.00,VWS V14.01,2013-04-09 07:55:00,
2013-04-09 04:00:00,52.5,47.5,29.93,SE,145,0.0,0.0,83,0.00,,---,0.00,VWS V14.01,2013-04-09 08:00:00,
2013-04-09 04:05:00,52.2,47.2,29.93,SE,145,0.0,0.0,83,0.00,,---,0.00,VWS V14.01,2013-04-09 08:05:00,
2013-04-09 04:10:00,52.0,47.0,29.93,SE,146,0.0,0.0,83,0.00,,---,0.00,VWS V14.01,2013-04-09 08:10:00,
2013-04-09 04:15:00,51.9,47.2,29.93,SE,145,0.0,0.0,84,0.00,,---,0.00,VWS V14.01,2013-04-09 08:15:00,
2013-04-09 04:20:00,51.6,46.9,29.93,SE,146,0.0,0.0,84,0.00,,---,0.00,VWS V14.01,2013-04-09 08:20:00,
2013-04-09 04:25:00,51.4,47.0,29.93,SE,145,0.0,0.0,85,0.00,,---,0.00,VWS V14.01,2013-04-09 08:25:00,
2013-04-09 04:30:00,51.3,47.3,29.93,SE,145,0.0,0.0,86,0.00,,---,0.00,VWS V14.01,2013-04-09 08:30:00,
2013-04-09 04:35:00,51.2,47.2,29.93,SE,145,0.0,0.0,86,0.00,,---,0.00,VWS V14.01,2013-04-09 08:35:00,
2013-04-09 04:40:00,51.0,47.3,29.93,SE,145,0.0,0.0,87,0.00,,---,0.00,VWS V14.01,2013-04-09 08:40:00,
2013-04-09 04:45:00,50.7,46.7,29.93,SE,145,0.0,0.0,86,0.00,,---,0.00,VWS V14.01,2013-04-09 08:45:00,
2013-04-09 04:50:00,50.6,46.9,29.93,SE,145,0.0,0.0,87,0.00,,---,0.00,VWS V14.01,2013-04-09 08:50:00,
2013-04-09 04:55:00,50.5,46.8,29.93,SE,145,0.0,0.0,87,0.00,,---,0.00,VWS V14.01,2013-04-09 08:55:00,
2013-04-09 05:00:00,50.4,46.7,29.93,SE,146,0.0,0.0,87,0.00,,---,0.00,VWS V14.01,2013-04-09 09:00:00,
2013-04-09 05:05:00,50.1,46.7,29.93,SE,145,0.0,0.0,88,0.00,,---,0.00,VWS V14.01,2013-04-09 09:05:00,
2013-04-09 05:10:00,50.0,46.6,29.94,SE,145,0.0,0.0,88,0.00,,---,0.00,VWS V14.01,2013-04-09 09:10:00,
2013-04-09 05:15:00,49.8,46.7,29.94,SE,145,0.0,0.0,89,0.00,,---,0.00,VWS V14.01,2013-04-09 09:15:00,
2013-04-09 05:21:00,49.7,46.6,29.93,SE,145,0.0,0.0,89,0.00,,---,0.00,VWS V14.01,2013-04-09 09:21:00,
2013-04-09 05:26:00,49.5,46.4,29.93,SE,145,0.0,0.0,89,0.00,,---,0.00,VWS V14.01,2013-04-09 09:26:00,
2013-04-09 05:32:00,49.5,46.7,29.94,SE,145,0.0,0.0,90,0.00,,---,0.00,VWS V14.01,2013-04-09 09:32:00,
2013-04-09 05:37:00,49.5,46.7,29.94,SE,145,0.0,0.0,90,0.00,,---,0.00,VWS V14.01,2013-04-09 09:37:00,
2013-04-09 05:42:00,49.5,46.7,29.94,SE,145,0.0,0.0,90,0.00,,---,0.00,VWS V14.01,2013-04-09 09:42:00,
2013-04-09 05:47:00,49.6,47.1,29.94,SE,145,0.0,0.0,91,0.00,,---,0.00,VWS V14.01,2013-04-09 09:47:00,
2013-04-09 05:52:00,49.7,46.9,29.94,SE,145,0.0,0.0,90,0.00,,---,0.00,VWS V14.01,2013-04-09 09:52:00,
2013-04-09 05:57:00,49.9,47.1,29.94,SE,145,0.0,0.0,90,0.00,,---,0.00,VWS V14.01,2013-04-09 09:57:00,
2013-04-09 06:02:00,49.9,47.1,29.94,SE,145,0.0,0.0,90,0.00,,---,0.00,VWS V14.01,2013-04-09 10:02:00,
2013-04-09 06:07:00,50.0,47.2,29.94,SE,145,0.0,0.0,90,0.00,,---,0.00,VWS V14.01,2013-04-09 10:07:00,
2013-04-09 06:12:00,50.1,47.3,29.95,SE,145,0.0,0.0,90,0.00,,---,0.00,VWS V14.01,2013-04-09 10:12:00,
2013-04-09 06:17:00,50.1,47.3,29.95,SE,145,0.0,0.0,90,0.00,,---,0.00,VWS V14.01,2013-04-09 10:17:00,
2013-04-09 06:22:00,50.1,47.0,29.95,SE,145,0.0,0.0,89,0.00,,---,0.00,VWS V14.01,2013-04-09 10:22:00,
2013-04-09 06:27:00,50.0,46.9,29.95,SE,145,0.0,0.0,89,0.00,,---,0.00,VWS V14.01,2013-04-09 10:27:00,
2013-04-09 06:32:00,49.9,47.1,29.95,SE,145,0.0,0.0,90,0.00,,---,0.00,VWS V14.01,2013-04-09 10:32:00,
2013-04-09 06:37:00,49.8,47.0,29.96,SE,145,0.0,0.0,90,0.00,,---,0.00,VWS V14.01,2013-04-09 10:37:00,
2013-04-09 06:42:00,49.7,47.2,29.96,SE,143,0.0,0.0,91,0.00,,---,0.00,VWS V14.01,2013-04-09 10:42:00,
2013-04-09 06:47:00,49.6,47.1,29.96,SE,143,0.0,0.0,91,0.00,,---,0.00,VWS V14.01,2013-04-09 10:47:00,
2013-04-09 06:52:00,49.6,46.8,29.96,SE,143,0.0,0.0,90,0.00,,---,0.00,VWS V14.01,2013-04-09 10:52:00,
2013-04-09 06:57:00,49.5,46.7,29.96,SE,143,0.0,0.0,90,0.00,,---,0.00,VWS V14.01,2013-04-09 10:57:00,
2013-04-09 07:02:00,49.5,46.7,29.96,SE,143,0.0,0.0,90,0.00,,---,0.00,VWS V14.01,2013-04-09 11:02:00,
2013-04-09 07:07:00,49.4,46.6,29.96,SE,143,0.0,0.0,90,0.00,,---,0.00,VWS V14.01,2013-04-09 11:07:00,
2013-04-09 07:12:00,49.3,46.8,29.96,SE,143,0.0,0.0,91,0.00,,---,0.00,VWS V14.01,2013-04-09 11:12:00,
2013-04-09 07:17:00,49.4,46.9,29.96,SE,146,0.0,0.0,91,0.00,,---,0.00,VWS V14.01,2013-04-09 11:17:00,
2013-04-09 07:22:00,49.5,47.0,29.95,SE,145,0.0,0.0,91,0.00,,---,0.00,VWS V14.01,2013-04-09 11:22:00,
2013-04-09 07:27:00,49.8,47.3,29.95,SE,145,0.0,0.0,91,0.00,,---,0.00,VWS V14.01,2013-04-09 11:27:00,
2013-04-09 07:32:00,50.3,47.5,29.95,SE,145,0.0,0.0,90,0.00,,---,0.00,VWS V14.01,2013-04-09 11:32:00,
2013-04-09 07:37:00,50.8,47.7,29.96,SE,146,0.0,0.0,89,0.00,,---,0.00,VWS V14.01,2013-04-09 11:37:00,
2013-04-09 07:42:00,51.1,47.7,29.95,SE,145,0.0,0.0,88,0.00,,---,0.00,VWS V14.01,2013-04-09 11:42:00,
2013-04-09 07:47:00,51.3,47.9,29.95,SE,145,0.0,0.0,88,0.00,,---,0.00,VWS V14.01,2013-04-09 11:47:00,
2013-04-09 07:52:00,51.7,48.3,29.95,SE,145,0.0,0.0,88,0.00,,---,0.00,VWS V14.01,2013-04-09 11:52:00,
2013-04-09 07:57:00,52.3,48.5,29.95,SE,145,0.0,0.0,87,0.00,,---,0.00,VWS V14.01,2013-04-09 11:57:00,
2013-04-09 08:02:00,52.8,48.7,29.95,SE,145,0.0,0.0,86,0.00,,---,0.00,VWS V14.01,2013-04-09 12:02:00,
2013-04-09 08:07:00,53.3,48.9,29.95,SE,145,0.0,0.0,85,0.00,,---,0.00,VWS V14.01,2013-04-09 12:07:00,
2013-04-09 08:12:00,54.0,49.0,29.96,SE,145,0.0,0.0,83,0.00,,---,0.00,VWS V14.01,2013-04-09 12:12:00,
2013-04-09 08:17:00,54.7,49.3,29.95,SE,145,0.0,0.0,82,0.00,,---,0.00,VWS V14.01,2013-04-09 12:17:00,
2013-04-09 08:22:00,55.6,49.9,29.95,SE,145,0.0,0.0,81,0.00,,---,0.00,VWS V14.01,2013-04-09 12:22:00,
2013-04-09 08:27:00,56.6,50.2,29.95,SSE,160,1.0,2.0,79,0.00,,---,0.00,VWS V14.01,2013-04-09 12:27:00,
2013-04-09 08:32:00,57.4,50.3,29.95,SE,141,1.0,2.0,77,0.00,,---,0.00,VWS V14.01,2013-04-09 12:32:00,
2013-04-09 08:37:00,57.9,50.4,29.95,SE,142,0.0,2.0,76,0.00,,---,0.00,VWS V14.01,2013-04-09 12:37:00,
2013-04-09 08:42:00,58.4,50.2,29.95,West,274,1.0,2.0,74,0.00,,---,0.00,VWS V14.01,2013-04-09 12:42:00,
2013-04-09 08:47:00,58.9,50.3,29.95,West,271,1.0,2.0,73,0.00,,---,0.00,VWS V14.01,2013-04-09 12:47:00,
2013-04-09 08:52:00,59.6,50.6,29.95,WSW,253,0.0,2.0,72,0.00,,---,0.00,VWS V14.01,2013-04-09 12:52:00,
2013-04-09 08:57:00,60.5,51.1,29.94,WSW,257,0.0,2.0,71,0.00,,---,0.00,VWS V14.01,2013-04-09 12:57:00,
2013-04-09 09:02:00,61.4,51.2,29.94,West,275,0.0,1.0,69,0.00,,---,0.00,VWS V14.01,2013-04-09 13:02:00,
2013-04-09 09:07:00,62.0,51.3,29.94,West,276,0.0,1.0,68,0.00,,---,0.00,VWS V14.01,2013-04-09 13:07:00,
2013-04-09 09:12:00,62.8,51.3,29.94,West,264,1.0,2.0,66,0.00,,---,0.00,VWS V14.01,2013-04-09 13:12:00,
2013-04-09 09:17:00,63.7,51.7,29.94,SSE,158,1.0,3.0,65,0.00,,---,0.00,VWS V14.01,2013-04-09 13:17:00,
2013-04-09 09:22:00,64.8,51.5,29.93,SW,222,2.0,3.0,62,0.00,,---,0.00,VWS V14.01,2013-04-09 13:22:00,
2013-04-09 09:27:00,66.2,51.9,29.93,ENE,71,1.0,5.0,60,0.00,,---,0.00,VWS V14.01,2013-04-09 13:27:00,
2013-04-09 09:32:00,68.1,50.3,29.93,West,278,7.0,16.0,53,0.00,,---,0.00,VWS V14.01,2013-04-09 13:32:00,
2013-04-09 09:37:00,69.8,49.8,29.93,WNW,283,8.0,20.0,49,0.00,,---,0.00,VWS V14.01,2013-04-09 13:37:00,
2013-04-09 09:42:00,70.6,50.0,29.93,WSW,250,7.0,20.0,48,0.00,,---,0.00,VWS V14.01,2013-04-09 13:42:00,
2013-04-09 09:47:00,71.2,50.5,29.94,NNW,336,6.0,20.0,48,0.00,,---,0.00,VWS V14.01,2013-04-09 13:47:00,
2013-04-09 09:52:00,71.3,49.5,29.94,WNW,300,2.0,20.0,46,0.00,,---,0.00,VWS V14.01,2013-04-09 13:52:00,
2013-04-09 09:57:00,71.4,49.6,29.94,SE,124,5.0,20.0,46,0.00,,---,0.00,VWS V14.01,2013-04-09 13:57:00,
2013-04-09 10:02:00,71.4,49.6,29.95,SSW,207,2.0,9.0,46,0.00,,---,0.00,VWS V14.01,2013-04-09 14:02:00,
2013-04-09 10:07:00,71.6,49.8,29.95,WNW,294,6.0,11.0,46,0.00,,---,0.00,VWS V14.01,2013-04-09 14:07:00,
2013-04-09 10:12:00,71.9,48.8,29.95,NW,304,6.0,11.0,44,0.00,,---,0.00,VWS V14.01,2013-04-09 14:12:00,
2013-04-09 10:17:00,72.0,49.5,29.95,NW,316,5.0,11.0,45,0.00,,---,0.00,VWS V14.01,2013-04-09 14:17:00,
2013-04-09 10:22:00,72.2,49.1,29.95,SE,137,3.0,18.0,44,0.00,,---,0.00,VWS V14.01,2013-04-09 14:22:00,
2013-04-09 10:27:00,72.5,49.4,29.95,West,266,2.0,18.0,44,0.00,,---,0.00,VWS V14.01,2013-04-09 14:27:00,
2013-04-09 10:32:00,72.7,48.9,29.96,WSW,249,5.0,9.0,43,0.00,,---,0.00,VWS V14.01,2013-04-09 14:32:00,
2013-04-09 10:37:00,72.9,48.5,29.96,ESE,117,2.0,13.0,42,0.00,,---,0.00,VWS V14.01,2013-04-09 14:37:00,
2013-04-09 10:42:00,73.2,48.1,29.96,WNW,301,2.0,13.0,41,0.00,,---,0.00,VWS V14.01,2013-04-09 14:42:00,
2013-04-09 10:47:00,73.5,48.4,29.96,NW,323,3.0,13.0,41,0.00,,---,0.00,VWS V14.01,2013-04-09 14:47:00,
2013-04-09 10:52:00,73.5,47.7,29.96,WNW,302,5.0,16.0,40,0.00,,---,0.00,VWS V14.01,2013-04-09 14:52:00,
2013-04-09 10:57:00,74.0,48.2,29.96,NW,314,8.0,16.0,40,0.00,,---,0.00,VWS V14.01,2013-04-09 14:57:00,
2013-04-09 11:02:00,74.0,46.1,29.96,West,266,7.0,14.0,37,0.00,,---,0.00,VWS V14.01,2013-04-09 15:02:00,
2013-04-09 11:07:00,74.1,46.2,29.96,NNE,26,12.0,14.0,37,0.00,,---,0.00,VWS V14.01,2013-04-09 15:07:00,
2013-04-09 11:12:00,74.1,45.5,29.96,WSW,258,7.0,14.0,36,0.00,,---,0.00,VWS V14.01,2013-04-09 15:12:00,
2013-04-09 11:17:00,73.9,45.3,29.96,NW,308,6.0,14.0,36,0.00,,---,0.00,VWS V14.01,2013-04-09 15:17:00,
2013-04-09 11:22:00,74.0,46.1,29.96,North,357,4.0,16.0,37,0.00,,---,0.00,VWS V14.01,2013-04-09 15:22:00,
2013-04-09 11:27:00,74.1,46.2,29.96,West,262,8.0,16.0,37,0.00,,---,0.00,VWS V14.01,2013-04-09 15:27:00,
2013-04-09 11:32:00,74.1,46.2,29.96,NW,309,15.0,15.0,37,0.00,,---,0.00,VWS V14.01,2013-04-09 15:32:00,
2013-04-09 11:37:00,74.4,45.7,29.96,WNW,287,2.0,15.0,36,0.00,,---,0.00,VWS V14.01,2013-04-09 15:37:00,
2013-04-09 11:42:00,74.8,45.3,29.96,WNW,294,5.0,15.0,35,0.00,,---,0.00,VWS V14.01,2013-04-09 15:42:00,
2013-04-09 11:47:00,75.0,44.8,29.96,NW,323,2.0,15.0,34,0.00,,---,0.00,VWS V14.01,2013-04-09 15:47:00,
2013-04-09 11:52:00,75.3,45.0,29.96,NW,309,7.0,15.0,34,0.00,,---,0.00,VWS V14.01,2013-04-09 15:52:00,
2013-04-09 11:57:00,75.5,46.0,29.96,West,276,3.0,15.0,35,0.00,,---,0.00,VWS V14.01,2013-04-09 15:57:00,
2013-04-09 12:03:00,75.8,45.5,29.96,WNW,298,3.0,8.0,34,0.00,,---,0.00,VWS V14.01,2013-04-09 16:03:00,
2013-04-09 12:08:00,76.1,46.5,29.96,NW,316,3.0,8.0,35,0.00,,---,0.00,VWS V14.01,2013-04-09 16:08:00,
2013-04-09 12:13:00,76.4,45.2,29.97,NW,314,7.0,14.0,33,0.00,,---,0.00,VWS V14.01,2013-04-09 16:13:00,
2013-04-09 12:18:00,75.9,44.8,29.96,West,277,2.0,14.0,33,0.00,,---,0.00,VWS V14.01,2013-04-09 16:18:00,
2013-04-09 12:23:00,76.0,44.8,29.96,North,6,5.0,14.0,33,0.00,,---,0.00,VWS V14.01,2013-04-09 16:23:00,
2013-04-09 12:28:00,76.3,44.3,29.96,NNW,337,13.0,14.0,32,0.00,,---,0.00,VWS V14.01,2013-04-09 16:28:00,
2013-04-09 12:33:00,76.2,44.2,29.95,SW,231,4.0,10.0,32,0.00,,---,0.00,VWS V14.01,2013-04-09 16:33:00,
2013-04-09 12:38:00,76.5,43.7,29.96,NW,316,6.0,13.0,31,0.00,,---,0.00,VWS V14.01,2013-04-09 16:38:00,
2013-04-09 12:43:00,76.9,42.3,29.95,WNW,297,3.0,13.0,29,0.00,,---,0.00,VWS V14.01,2013-04-09 16:43:00,
2013-04-09 12:48:00,77.2,43.4,29.95,SW,231,5.0,13.0,30,0.00,,---,0.00,VWS V14.01,2013-04-09 16:48:00,
2013-04-09 12:53:00,76.9,43.1,29.95,North,4,2.0,14.0,30,0.00,,---,0.00,VWS V14.01,2013-04-09 16:53:00,
2013-04-09 12:58:00,77.6,42.0,29.95,NW,319,4.0,14.0,28,0.00,,---,0.00,VWS V14.01,2013-04-09 16:58:00,
2013-04-09 13:03:00,78.0,42.3,29.95,West,271,12.0,12.0,28,0.00,,---,0.00,VWS V14.01,2013-04-09 17:03:00,
2013-04-09 13:08:00,77.5,40.9,29.95,WSW,255,11.0,13.0,27,0.00,,---,0.00,VWS V14.01,2013-04-09 17:08:00,
2013-04-09 13:13:00,77.7,40.1,29.95,West,281,11.0,17.0,26,0.00,,---,0.00,VWS V14.01,2013-04-09 17:13:00,
2013-04-09 13:18:00,77.4,38.9,29.95,NW,316,16.0,17.0,25,0.00,,---,0.00,VWS V14.01,2013-04-09 17:18:00,
2013-04-09 13:23:00,77.5,38.9,29.95,NNW,342,3.0,17.0,25,0.00,,---,0.00,VWS V14.01,2013-04-09 17:23:00,
2013-04-09 13:28:00,77.6,39.0,29.96,West,271,13.0,17.0,25,0.00,,---,0.00,VWS V14.01,2013-04-09 17:28:00,
2013-04-09 13:33:00,77.2,38.7,29.96,West,267,9.0,15.0,25,0.00,,---,0.00,VWS V14.01,2013-04-09 17:33:00,
2013-04-09 13:38:00,77.2,38.7,29.96,WNW,283,6.0,17.0,25,0.00,,---,0.00,VWS V14.01,2013-04-09 17:38:00,
2013-04-09 13:43:00,77.1,38.6,29.95,NE,46,7.0,17.0,25,0.00,,---,0.00,VWS V14.01,2013-04-09 17:43:00,
2013-04-09 13:48:00,77.5,38.9,29.96,WNW,303,7.0,17.0,25,0.00,,---,0.00,VWS V14.01,2013-04-09 17:48:00,
2013-04-09 13:53:00,77.6,38.0,29.96,WNW,295,6.0,17.0,24,0.00,,---,0.00,VWS V14.01,2013-04-09 17:53:00,
2013-04-09 13:58:00,77.9,39.3,29.95,West,280,4.0,17.0,25,0.00,,---,0.00,VWS V14.01,2013-04-09 17:58:00,
2013-04-09 14:03:00,78.0,37.2,29.95,NNW,327,8.0,14.0,23,0.00,,---,0.00,VWS V14.01,2013-04-09 18:03:00,
2013-04-09 14:08:00,77.5,37.9,29.95,SW,233,4.0,17.0,24,0.00,,---,0.00,VWS V14.01,2013-04-09 18:08:00,
2013-04-09 14:13:00,77.4,37.8,29.96,WNW,283,5.0,19.0,24,0.00,,---,0.00,VWS V14.01,2013-04-09 18:13:00,
2013-04-09 14:18:00,77.7,39.1,29.95,WNW,285,5.0,19.0,25,0.00,,---,0.00,VWS V14.01,2013-04-09 18:18:00,
2013-04-09 14:23:00,77.9,38.2,29.95,West,274,7.0,19.0,24,0.00,,---,0.00,VWS V14.01,2013-04-09 18:23:00,
2013-04-09 14:28:00,78.0,38.3,29.95,West,278,6.0,19.0,24,0.00,,---,0.00,VWS V14.01,2013-04-09 18:28:00,
2013-04-09 14:33:00,78.4,39.7,29.95,NW,315,6.0,7.0,25,0.00,,---,0.00,VWS V14.01,2013-04-09 18:33:00,
2013-04-09 14:38:00,78.4,38.7,29.96,WNW,301,13.0,13.0,24,0.00,,---,0.00,VWS V14.01,2013-04-09 18:38:00,
2013-04-09 14:43:00,77.9,37.2,29.95,West,260,5.0,13.0,23,0.00,,---,0.00,VWS V14.01,2013-04-09 18:43:00,
2013-04-09 14:48:00,78.2,39.5,29.95,West,271,7.0,13.0,25,0.00,,---,0.00,VWS V14.01,2013-04-09 18:48:00,
2013-04-09 14:53:00,78.5,36.5,29.95,NW,325,6.0,14.0,22,0.00,,---,0.00,VWS V14.01,2013-04-09 18:53:00,
2013-04-09 14:58:00,78.5,36.5,29.95,NW,321,3.0,16.0,22,0.00,,---,0.00,VWS V14.01,2013-04-09 18:58:00,
2013-04-09 15:03:00,78.4,38.7,29.95,North,353,4.0,8.0,24,0.00,,---,0.00,VWS V14.01,2013-04-09 19:03:00,
2013-04-09 15:08:00,79.0,37.0,29.95,NW,311,7.0,9.0,22,0.00,,---,0.00,VWS V14.01,2013-04-09 19:08:00,
2013-04-09 15:13:00,78.9,35.7,29.95,NW,310,7.0,9.0,21,0.00,,---,0.00,VWS V14.01,2013-04-09 19:13:00,
2013-04-09 15:18:00,78.8,36.8,29.95,West,276,9.0,12.0,22,0.00,,---,0.00,VWS V14.01,2013-04-09 19:18:00,
2013-04-09 15:23:00,78.8,36.8,29.94,West,267,6.0,13.0,22,0.00,,---,0.00,VWS V14.01,2013-04-09 19:23:00,
2013-04-09 15:28:00,79.0,35.8,29.94,West,281,1.0,13.0,21,0.00,,---,0.00,VWS V14.01,2013-04-09 19:28:00,
2013-04-09 15:33:00,78.5,35.4,29.95,West,259,6.0,14.0,21,0.00,,---,0.00,VWS V14.01,2013-04-09 19:33:00,
2013-04-09 15:38:00,77.9,37.2,29.95,WSW,256,6.0,14.0,23,0.00,,---,0.00,VWS V14.01,2013-04-09 19:38:00,
2013-04-09 15:43:00,78.2,37.4,29.94,NW,314,4.0,14.0,23,0.00,,---,0.00,VWS V14.01,2013-04-09 19:43:00,
2013-04-09 15:48:00,78.6,36.6,29.94,West,264,4.0,14.0,22,0.00,,---,0.00,VWS V14.01,2013-04-09 19:48:00,
2013-04-09 15:53:00,78.6,35.4,29.93,WSW,257,5.0,14.0,21,0.00,,---,0.00,VWS V14.01,2013-04-09 19:53:00,
2013-04-09 15:58:00,78.8,35.6,29.93,West,264,6.0,14.0,21,0.00,,---,0.00,VWS V14.01,2013-04-09 19:58:00,
2013-04-09 16:03:00,79.0,35.8,29.93,WNW,291,4.0,6.0,21,0.00,,---,0.00,VWS V14.01,2013-04-09 20:03:00,
2013-04-09 16:08:00,79.1,35.8,29.93,WNW,288,4.0,7.0,21,0.00,,---,0.00,VWS V14.01,2013-04-09 20:08:00,
2013-04-09 16:13:00,79.2,38.2,29.93,West,259,2.0,9.0,23,0.00,,---,0.00,VWS V14.01,2013-04-09 20:13:00,
2013-04-09 16:18:00,79.7,37.5,29.93,WSW,238,4.0,9.0,22,0.00,,---,0.00,VWS V14.01,2013-04-09 20:18:00,
2013-04-09 16:23:00,79.5,37.4,29.93,West,277,5.0,9.0,22,0.00,,---,0.00,VWS V14.01,2013-04-09 20:23:00,
2013-04-09 16:28:00,79.3,37.2,29.93,NW,304,3.0,9.0,22,0.00,,---,0.00,VWS V14.01,2013-04-09 20:28:00,
2013-04-09 16:33:00,79.5,37.4,29.93,WSW,257,4.0,9.0,22,0.00,,---,0.00,VWS V14.01,2013-04-09 20:33:00,
2013-04-09 16:38:00,79.3,37.2,29.93,WNW,286,3.0,9.0,22,0.00,,---,0.00,VWS V14.01,2013-04-09 20:38:00,
2013-04-09 16:43:00,79.1,38.2,29.92,NNE,27,4.0,9.0,23,0.00,,---,0.00,VWS V14.01,2013-04-09 20:43:00,
2013-04-09 16:48:00,79.1,37.0,29.92,WNW,284,4.0,9.0,22,0.00,,---,0.00,VWS V14.01,2013-04-09 20:48:00,
2013-04-09 16:53:00,79.4,37.3,29.92,NW,326,2.0,9.0,22,0.00,,---,0.00,VWS V14.01,2013-04-09 20:53:00,
2013-04-09 16:58:00,79.6,37.5,29.93,NW,321,1.0,9.0,22,0.00,,---,0.00,VWS V14.01,2013-04-09 20:58:00,
2013-04-09 17:03:00,79.7,36.3,29.93,West,277,5.0,8.0,21,0.00,,---,0.00,VWS V14.01,2013-04-09 21:03:00,
2013-04-09 17:08:00,79.6,36.3,29.93,NNW,330,4.0,10.0,21,0.00,,---,0.00,VWS V14.01,2013-04-09 21:08:00,
2013-04-09 17:13:00,79.5,36.2,29.93,NW,314,5.0,10.0,21,0.00,,---,0.00,VWS V14.01,2013-04-09 21:13:00,
2013-04-09 17:18:00,79.4,34.9,29.93,NW,309,6.0,10.0,20,0.00,,---,0.00,VWS V14.01,2013-04-09 21:18:00,
2013-04-09 17:23:00,79.5,35.0,29.93,West,273,2.0,10.0,20,0.00,,---,0.00,VWS V14.01,2013-04-09 21:23:00,
2013-04-09 17:28:00,79.9,36.5,29.93,West,276,3.0,10.0,21,0.00,,---,0.00,VWS V14.01,2013-04-09 21:28:00,
2013-04-09 17:33:00,79.9,36.5,29.93,NE,41,5.0,5.0,21,0.00,,---,0.00,VWS V14.01,2013-04-09 21:33:00,
2013-04-09 17:38:00,79.6,35.0,29.93,NNE,18,4.0,15.0,20,0.00,,---,0.00,VWS V14.01,2013-04-09 21:38:00,
2013-04-09 17:43:00,79.6,36.3,29.94,WNW,300,6.0,15.0,21,0.00,,---,0.00,VWS V14.01,2013-04-09 21:43:00,
2013-04-09 17:48:00,79.4,36.1,29.93,NNW,343,4.0,15.0,21,0.00,,---,0.00,VWS V14.01,2013-04-09 21:48:00,
2013-04-09 17:53:00,78.9,35.7,29.94,NW,319,5.0,15.0,21,0.00,,---,0.00,VWS V14.01,2013-04-09 21:53:00,
2013-04-09 17:58:00,79.0,35.8,29.94,NW,319,2.0,15.0,21,0.00,,---,0.00,VWS V14.01,2013-04-09 21:58:00,
2013-04-09 18:03:00,78.8,36.8,29.94,North,9,0.0,5.0,22,0.00,,---,0.00,VWS V14.01,2013-04-09 22:03:00,
2013-04-09 18:08:00,78.8,35.6,29.94,West,269,6.0,6.0,21,0.00,,---,0.00,VWS V14.01,2013-04-09 22:08:00,
2013-04-09 18:13:00,78.8,35.6,29.94,WSW,249,2.0,10.0,21,0.00,,---,0.00,VWS V14.01,2013-04-09 22:13:00,
2013-04-09 18:18:00,78.9,35.7,29.94,North,354,2.0,10.0,21,0.00,,---,0.00,VWS V14.01,2013-04-09 22:18:00,
2013-04-09 18:23:00,78.4,37.6,29.94,NE,51,6.0,10.0,23,0.00,,---,0.00,VWS V14.01,2013-04-09 22:23:00,
2013-04-09 18:28:00,78.1,37.3,29.94,NNW,348,2.0,10.0,23,0.00,,---,0.00,VWS V14.01,2013-04-09 22:28:00,
2013-04-09 18:33:00,77.8,38.2,29.94,NNE,19,3.0,6.0,24,0.00,,---,0.00,VWS V14.01,2013-04-09 22:33:00,
2013-04-09 18:38:00,77.6,36.9,29.94,North,355,4.0,6.0,23,0.00,,---,0.00,VWS V14.01,2013-04-09 22:38:00,
2013-04-09 18:43:00,77.4,35.6,29.94,NNW,338,3.0,7.0,22,0.00,,---,0.00,VWS V14.01,2013-04-09 22:43:00,
2013-04-09 18:48:00,77.3,36.7,29.93,NNW,344,1.0,7.0,23,0.00,,---,0.00,VWS V14.01,2013-04-09 22:48:00,
2013-04-09 18:53:00,77.0,38.5,29.93,NNE,33,2.0,7.0,25,0.00,,---,0.00,VWS V14.01,2013-04-09 22:53:00,
2013-04-09 18:58:00,76.6,37.1,29.93,NNE,28,1.0,7.0,24,0.00,,---,0.00,VWS V14.01,2013-04-09 22:58:00,
2013-04-09 19:03:00,76.4,37.0,29.93,North,354,0.0,0.0,24,0.00,,---,0.00,VWS V14.01,2013-04-09 23:03:00,
2013-04-09 19:08:00,76.1,37.8,29.93,North,354,0.0,0.0,25,0.00,,---,0.00,VWS V14.01,2013-04-09 23:08:00,
2013-04-09 19:13:00,75.5,37.2,29.93,North,354,0.0,0.0,25,0.00,,---,0.00,VWS V14.01,2013-04-09 23:13:00,
2013-04-09 19:18:00,74.8,37.7,29.93,North,354,0.0,0.0,26,0.00,,---,0.00,VWS V14.01,2013-04-09 23:18:00,
2013-04-09 19:23:00,74.2,38.1,29.94,North,354,0.0,0.0,27,0.00,,---,0.00,VWS V14.01,2013-04-09 23:23:00,
2013-04-09 19:28:00,73.3,38.3,29.94,North,354,0.0,0.0,28,0.00,,---,0.00,VWS V14.01,2013-04-09 23:28:00,
2013-04-09 19:33:00,72.4,40.1,29.94,North,354,0.0,0.0,31,0.00,,---,0.00,VWS V14.01,2013-04-09 23:33:00,
2013-04-09 19:38:00,71.6,38.6,29.94,North,354,0.0,0.0,30,0.00,,---,0.00,VWS V14.01,2013-04-09 23:38:00,
2013-04-09 19:43:00,70.9,39.6,29.95,North,354,0.0,0.0,32,0.00,,---,0.00,VWS V14.01,2013-04-09 23:43:00,
2013-04-09 19:48:00,70.3,39.1,29.95,North,354,0.0,0.0,32,0.00,,---,0.00,VWS V14.01,2013-04-09 23:48:00,
2013-04-09 19:53:00,69.7,38.5,29.95,North,354,0.0,0.0,32,0.00,,---,0.00,VWS V14.01,2013-04-09 23:53:00,
2013-04-09 19:58:00,69.1,40.3,29.95,North,354,0.0,0.0,35,0.00,,---,0.00,VWS V14.01,2013-04-09 23:58:00,
2013-04-09 20:03:00,68.3,41.0,29.95,North,354,0.0,0.0,37,0.00,,---,0.00,VWS V14.01,2013-04-10 00:03:00,
2013-04-09 20:08:00,67.7,43.2,29.95,North,354,0.0,0.0,41,0.00,,---,0.00,VWS V14.01,2013-04-10 00:08:00,
2013-04-09 20:13:00,67.0,41.2,29.95,North,354,0.0,1.0,39,0.00,,---,0.00,VWS V14.01,2013-04-10 00:13:00,
2013-04-09 20:18:00,66.7,41.6,29.95,North,354,0.0,1.0,40,0.00,,---,0.00,VWS V14.01,2013-04-10 00:18:00,
2013-04-09 20:23:00,66.4,45.0,29.95,North,354,0.0,1.0,46,0.00,,---,0.00,VWS V14.01,2013-04-10 00:23:00,
2013-04-09 20:28:00,65.8,45.6,29.96,North,354,0.0,1.0,48,0.00,,---,0.00,VWS V14.01,2013-04-10 00:28:00,
2013-04-09 20:33:00,65.4,45.2,29.96,North,354,0.0,0.0,48,0.00,,---,0.00,VWS V14.01,2013-04-10 00:33:00,
2013-04-09 20:38:00,65.0,43.7,29.96,North,354,0.0,0.0,46,0.00,,---,0.00,VWS V14.01,2013-04-10 00:38:00,
2013-04-09 20:43:00,64.7,42.9,29.96,North,354,0.0,0.0,45,0.00,,---,0.00,VWS V14.01,2013-04-10 00:43:00,
2013-04-09 20:48:00,64.4,43.8,29.96,North,354,0.0,0.0,47,0.00,,---,0.00,VWS V14.01,2013-04-10 00:48:00,
2013-04-09 20:53:00,64.1,44.0,29.96,North,354,0.0,0.0,48,0.00,,---,0.00,VWS V14.01,2013-04-10 00:53:00,
2013-04-09 20:58:00,63.7,45.8,29.97,North,354,0.0,0.0,52,0.00,,---,0.00,VWS V14.01,2013-04-10 00:58:00,
2013-04-09 21:03:00,63.3,44.4,29.97,North,354,0.0,1.0,50,0.00,,---,0.00,VWS V14.01,2013-04-10 01:03:00,
2013-04-09 21:08:00,63.1,42.6,29.97,North,354,0.0,1.0,47,0.00,,---,0.00,VWS V14.01,2013-04-10 01:08:00,
2013-04-09 21:13:00,63.2,42.1,29.98,North,354,0.0,1.0,46,0.00,,---,0.00,VWS V14.01,2013-04-10 01:13:00,
2013-04-09 21:18:00,62.9,44.0,29.98,North,354,0.0,1.0,50,0.00,,---,0.00,VWS V14.01,2013-04-10 01:18:00,
2013-04-09 21:23:00,62.7,40.5,29.98,North,354,0.0,1.0,44,0.00,,---,0.00,VWS V14.01,2013-04-10 01:23:00,
2013-04-09 21:28:00,62.7,46.8,29.98,North,354,0.0,1.0,56,0.00,,---,0.00,VWS V14.01,2013-04-10 01:28:00,
2013-04-09 21:33:00,62.0,43.7,29.98,North,6,1.0,1.0,51,0.00,,---,0.00,VWS V14.01,2013-04-10 01:33:00,
2013-04-09 21:38:00,61.7,44.9,29.98,North,6,0.0,1.0,54,0.00,,---,0.00,VWS V14.01,2013-04-10 01:38:00,
2013-04-09 21:43:00,61.4,41.6,29.98,North,6,0.0,1.0,48,0.00,,---,0.00,VWS V14.01,2013-04-10 01:43:00,
2013-04-09 21:48:00,61.2,46.3,29.97,North,6,0.0,1.0,58,0.00,,---,0.00,VWS V14.01,2013-04-10 01:48:00,
2013-04-09 21:53:00,60.8,46.0,29.97,North,6,0.0,1.0,58,0.00,,---,0.00,VWS V14.01,2013-04-10 01:53:00,
2013-04-09 21:58:00,60.5,47.0,29.97,North,6,1.0,1.0,61,0.00,,---,0.00,VWS V14.01,2013-04-10 01:58:00,
2013-04-09 22:03:00,60.2,45.8,29.97,North,6,0.0,1.0,59,0.00,,---,0.00,VWS V14.01,2013-04-10 02:03:00,
2013-04-09 22:08:00,60.0,45.7,29.96,North,6,0.0,1.0,59,0.00,,---,0.00,VWS V14.01,2013-04-10 02:08:00,
2013-04-09 22:13:00,59.8,46.3,29.95,North,6,0.0,1.0,61,0.00,,---,0.00,VWS V14.01,2013-04-10 02:13:00,
2013-04-09 22:18:00,59.5,46.5,29.95,North,6,0.0,1.0,62,0.00,,---,0.00,VWS V14.01,2013-04-10 02:18:00,
2013-04-09 22:23:00,59.2,44.9,29.95,North,6,0.0,1.0,59,0.00,,---,0.00,VWS V14.01,2013-04-10 02:23:00,
2013-04-09 22:28:00,59.0,43.3,29.94,North,6,0.0,1.0,56,0.00,,---,0.00,VWS V14.01,2013-04-10 02:28:00,
2013-04-09 22:33:00,58.9,45.1,29.94,NNE,33,0.0,0.0,60,0.00,,---,0.00,VWS V14.01,2013-04-10 02:33:00,
2013-04-09 22:38:00,58.7,43.1,29.94,NNE,33,0.0,0.0,56,0.00,,---,0.00,VWS V14.01,2013-04-10 02:38:00,
2013-04-09 22:43:00,58.6,43.0,29.93,NNE,33,0.0,0.0,56,0.00,,---,0.00,VWS V14.01,2013-04-10 02:43:00,
2013-04-09 22:48:00,58.5,44.2,29.93,NNE,32,0.0,0.0,59,0.00,,---,0.00,VWS V14.01,2013-04-10 02:48:00,
2013-04-09 22:53:00,58.3,44.0,29.92,NNE,32,0.0,0.0,59,0.00,,---,0.00,VWS V14.01,2013-04-10 02:53:00,
2013-04-09 22:58:00,58.1,45.2,29.92,NNE,33,0.0,0.0,62,0.00,,---,0.00,VWS V14.01,2013-04-10 02:58:00,
2013-04-09 23:03:00,57.9,43.7,29.92,NNE,33,0.0,0.0,59,0.00,,---,0.00,VWS V14.01,2013-04-10 03:03:00,
2013-04-09 23:08:00,57.9,44.1,29.92,NNE,33,0.0,0.0,60,0.00,,---,0.00,VWS V14.01,2013-04-10 03:08:00,
2013-04-09 23:13:00,57.8,43.6,29.91,NNE,33,0.0,0.0,59,0.00,,---,0.00,VWS V14.01,2013-04-10 03:13:00,
2013-04-09 23:18:00,57.7,43.5,29.92,NNE,33,0.0,0.0,59,0.00,,---,0.00,VWS V14.01,2013-04-10 03:18:00,
2013-04-09 23:23:00,57.5,44.2,29.91,NNE,33,0.0,0.0,61,0.00,,---,0.00,VWS V14.01,2013-04-10 03:23:00,
2013-04-09 23:28:00,57.4,43.6,29.91,NNE,33,0.0,0.0,60,0.00,,---,0.00,VWS V14.01,2013-04-10 03:28:00,
2013-04-09 23:33:00,57.4,43.6,29.91,NNE,33,0.0,0.0,60,0.00,,---,0.00,VWS V14.01,2013-04-10 03:33:00,
2013-04-09 23:38:00,57.2,43.9,29.91,NNE,33,0.0,0.0,61,0.00,,---,0.00,VWS V14.01,2013-04-10 03:38:00,
2013-04-09 23:43:00,57.4,42.8,29.91,NNE,33,0.0,0.0,58,0.00,,---,0.00,VWS V14.01,2013-04-10 03:43:00,
2013-04-09 23:48:00,57.5,44.2,29.91,NNE,32,0.0,0.0,61,0.00,,---,0.00,VWS V14.01,2013-04-10 03:48:00,
2013-04-09 23:53:00,57.6,43.4,29.91,NNE,32,0.0,0.0,59,0.00,,---,0.00,VWS V14.01,2013-04-10 03:53:00,
2013-04-09 23:58:00,57.7,43.5,29.90,NNE,32,0.0,0.0,59,0.00,,---,0.00,VWS V14.01,2013-04-10 03:58:00,